UAL1582 KEWR-TNCM

Flight info

Callsign UAL1582
Flight time N/A
Altitude 33000
Route ELVAE DCT NECCK DCT DIXIE Y481 OHRYN/N0455F320 Y489 BEHHR/M078F320 Y489 RESQU/M078F330 DCT SKPPR L455 BWTIE/M078F350 L455 KINCH/N0459F350 L455 LENNT DCT SLUGO
Aircraft B739/M-SDE2E3FGHIRWXY/LB1

Departure

Time 2026-04-23 18:21
Airport Newark Liberty International Airport (KEWR)

Arrival

Time N/A
Airport Princess Juliana International Airport (TNCM)
Time Latitude Longitude Altitude Speed Heading
2026-04-23 18:03 40.69814 -74.17471 29 ft 0 kts 183°
2026-04-23 18:12 40.69815 -74.17471 29 ft 1 kts 184°
2026-04-23 18:12 40.69830 -74.17472 29 ft 2 kts 166°
2026-04-23 18:12 40.69844 -74.17479 29 ft 2 kts 153°
2026-04-23 18:12 40.69857 -74.17490 29 ft 2 kts 137°
2026-04-23 18:13 40.69867 -74.17505 29 ft 2 kts 123°
2026-04-23 18:13 40.69875 -74.17521 29 ft 2 kts 124°
2026-04-23 18:13 40.69880 -74.17532 29 ft 1 kts 126°
2026-04-23 18:13 40.69886 -74.17550 29 ft 2 kts 89°
2026-04-23 18:14 40.69882 -74.17568 29 ft 2 kts 56°
2026-04-23 18:14 40.69877 -74.17576 29 ft 1 kts 37°
2026-04-23 18:14 40.69873 -74.17580 29 ft 0 kts 41°
2026-04-23 18:15 40.69876 -74.17576 29 ft 3 kts 41°
2026-04-23 18:16 40.69895 -74.17554 29 ft 4 kts 41°
2026-04-23 18:16 40.69931 -74.17512 29 ft 9 kts 42°
2026-04-23 18:16 40.69958 -74.17417 29 ft 16 kts 107°
2026-04-23 18:17 40.69750 -74.17093 29 ft 29 kts 147°
2026-04-23 18:17 40.69557 -74.16989 29 ft 29 kts 168°
2026-04-23 18:17 40.69353 -74.16977 29 ft 29 kts 188°
2026-04-23 18:17 40.69160 -74.17072 29 ft 29 kts 205°
2026-04-23 18:18 40.68980 -74.17187 29 ft 28 kts 205°
2026-04-23 18:18 40.68808 -74.17293 29 ft 26 kts 208°
2026-04-23 18:18 40.68645 -74.17403 29 ft 25 kts 206°
2026-04-23 18:18 40.68486 -74.17501 29 ft 25 kts 205°
2026-04-23 18:19 40.68323 -74.17602 29 ft 27 kts 206°
2026-04-23 18:19 40.68145 -74.17717 29 ft 29 kts 207°
2026-04-23 18:19 40.67952 -74.17839 29 ft 31 kts 206°
2026-04-23 18:19 40.67755 -74.17966 29 ft 31 kts 206°
2026-04-23 18:20 40.67576 -74.18015 29 ft 23 kts 132°
2026-04-23 18:20 40.67657 -74.17864 29 ft 39 kts 24°
2026-04-23 18:20 40.68115 -74.17576 29 ft 105 kts 25°
2026-04-23 18:20 40.68961 -74.17042 29 ft 161 kts 25°
2026-04-23 18:21 40.70035 -74.16336 462 ft 176 kts 21°
2026-04-23 18:21 40.71139 -74.15554 1069 ft 189 kts 33°
2026-04-23 18:21 40.72103 -74.14307 1655 ft 204 kts 41°
2026-04-23 18:21 40.73101 -74.12931 2111 ft 215 kts 39°
2026-04-23 18:22 40.74227 -74.11527 2525 ft 229 kts 38°
2026-04-23 18:22 40.75438 -74.10078 2996 ft 242 kts 38°
2026-04-23 18:22 40.76776 -74.08732 3536 ft 246 kts 20°
2026-04-23 18:22 40.78458 -74.08449 3984 ft 250 kts 345°
2026-04-23 18:23 40.79509 -74.09071 4440 ft 250 kts 322°
2026-04-23 18:23 40.80786 -74.13971 6082 ft 263 kts 266°
2026-04-23 18:24 40.78526 -74.17770 7435 ft 291 kts 210°
2026-04-23 18:24 40.76588 -74.18690 8033 ft 300 kts 203°
2026-04-23 18:24 40.74582 -74.19462 8653 ft 305 kts 203°
2026-04-23 18:25 40.70469 -74.21053 9882 ft 311 kts 205°
2026-04-23 18:25 40.68379 -74.21913 10376 ft 318 kts 206°
2026-04-23 18:25 40.66224 -74.22821 10680 ft 333 kts 205°
2026-04-23 18:25 40.63962 -74.23773 10994 ft 347 kts 205°
2026-04-23 18:26 40.61623 -74.24754 11288 ft 361 kts 205°
2026-04-23 18:26 40.59196 -74.25768 11590 ft 375 kts 204°
2026-04-23 18:26 40.56601 -74.26691 11810 ft 396 kts 197°
2026-04-23 18:26 40.53778 -74.26917 12014 ft 421 kts 179°
2026-04-23 18:27 40.50817 -74.26042 12260 ft 441 kts 165°